Location: Newark
(31.4565°N, 75.7559°E)
Time: 18:10:55
(UTC+00:00)

Hubble Space Telescope - Visible Passes

Search period start: 27 January 2020 00:00
Search period end: 06 February 2020 00:00
Orbit: 536 x 540 km, 28.5° (Epoch: 26 January)

Date Brightness Start Highest point End Pass type
(mag) Time Alt. Az. Time Alt. Az. Time Alt. Az.
27 Jan 3.4 01:21:19 10° SSW 01:24:06 17° SSE 01:26:52 10° ESE visible
28 Jan 3.1 01:10:14 10° SSW 01:13:23 21° SSE 01:16:33 10° ESE visible
29 Jan 2.7 00:59:16 10° SW 01:02:42 26° SSE 01:06:08 10° ESE visible
30 Jan 2.4 00:48:23 10° SW 00:52:01 30° SSE 00:55:40 10° E visible
31 Jan 2.0 00:38:19 14° SW 00:41:21 35° SSE 00:45:08 10° E visible
01 Feb 1.7 00:28:34 22° SW 00:30:42 40° SSE 00:34:35 10° E visible
02 Feb 1.5 00:18:44 33° SW 00:20:02 46° S 00:24:00 10° E visible
03 Feb 1.2 00:08:50 46° SSW 00:09:24 50° S 00:13:24 10° E visible
03 Feb 1.2 23:58:52 54° SSE 23:58:52 54° SSE 00:02:48 10° E visible
04 Feb 1.5 23:48:53 47° SE 23:48:53 47° SE 23:52:11 10° E visible
05 Feb 2.1 23:38:52 36° ESE 23:38:52 36° ESE 23:41:33 10° ESE visible
